Location: Atlanta
(33.7490°N, 84.3880°W)
Time: 11:12:53
(UTC-04:00)

Daily predictions for brighter satellites

Satellite Brightness Start Highest point End
(mag) Time Altitude Azimuth Time Altitude Azimuth Time Altitude Azimuth
COSMOS 2428 4.1 21:16:53 10° N 21:21:20 23° ENE 21:25:47 10° ESE
Cosmos 1743 Rocket 4.3 21:17:10 10° SSW 21:21:35 60° W 21:25:59 10° N
DELTA 2 R/B (1) 3.7 21:18:22 10° WNW 21:23:57 83° NNE 21:29:31 10° ESE
CZ-2D R/B 3.5 21:21:17 10° S 21:25:08 74° W 21:29:00 10° NNW
Cosmos 1500 Rocket 3.7 21:21:42 10° S 21:26:04 81° W 21:30:30 10° N
Cosmos 2058 4.1 21:25:29 10° SE 21:28:45 23° E 21:32:01 10° NE
Cosmos 1680 Rocket 4.0 21:23:53 10° N 21:28:55 45° ENE 21:33:57 10° SE
Cosmos 2151 3.4 21:25:32 10° SSE 21:29:29 42° E 21:33:28 10° NNE
Cosmos 1437 Rocket 2.7 21:26:33 10° N 21:30:23 70° E 21:34:16 10° SSE
NOSS 3-1 (A) 3.5 21:28:59 10° S 21:34:33 54° ESE 21:40:38 10° NE
Cosmos 923 Rocket 4.0 21:29:38 10° NNW 21:34:50 70° ENE 21:40:00 10° SSE
Cosmos 1898 Rocket 4.2 21:31:48 10° SSE 21:36:21 33° E 21:40:58 10° NE
Cosmos 773 Rocket 4.1 21:32:14 10° NNW 21:37:28 85° WSW 21:42:43 10° SSE
Cosmos 405 3.1 21:34:36 10° N 21:38:12 59° E 21:41:44 10° SSE
Delta 2 Rocket 3.3 21:37:20 10° W 21:41:14 65° N 21:44:44 10° E
Cosmos 1437 2.7 21:38:51 10° S 21:42:06 74° E 21:45:23 10° NNE
ALOS 3.0 21:38:37 10° S 21:43:09 53° W 21:47:44 10° NNW
Aureole 3 4.4 21:38:04 10° S 21:44:33 58° E 21:49:44 10° NNE
Cosmos 1939 Rocket 3.4 21:42:39 12° SE 21:45:59 40° ENE 21:49:38 10° N
Cosmos 2219 3.3 21:40:40 10° SSW 21:46:25 87° WNW 21:52:12 10° NNE
Tiangong 1 3.3 21:44:31 10° WNW 21:47:12 26° NNW 21:49:53 10° NE
FENGYUN 3A 4.3 21:42:43 10° S 21:48:01 56° W 21:53:21 10° NNW
Nimbus 7 Rocket 4.5 21:46:04 10° NNE 21:51:51 58° ESE 21:57:36 10° S
Cosmos 2150 Rocket 4.3 21:47:11 10° S 21:52:24 50° ESE 21:57:40 10° NNE
OAO 2 Rocket 3.4 21:47:08 10° WSW 21:52:27 88° SSE 21:57:48 10° E
Cosmos 2237 Rocket 4.2 21:50:09 10° NNE 21:52:58 14° NE 21:55:46 10° E
Cosmos 2322 Rocket 4.1 21:50:40 10° NW 21:55:13 26° WSW 21:59:45 10° SSW
ATLAS 2AS CENTAUR R/B 3.5 21:50:24 10° S 21:56:40 33° ESE 22:03:25 10° NE
Sich 1 3.9 21:54:32 15° SE 21:57:29 32° E 22:01:23 10° NNE
Cosmos 2322 3.8 21:54:35 10° NNW 22:00:19 78° WSW 22:05:37 12° SSE
deb Chang Zheng 4 3.6 21:56:35 10° NNE 22:00:56 86° WNW 22:05:17 10° SSW
Cosmos 1328 3.8 21:57:32 10° S 22:01:28 85° W 22:05:27 10° N
Cosmos 2360 Rocket 2.4 21:56:45 10° NNW 22:02:23 72° WSW 22:07:43 12° S
Cosmos 1151 Rocket 3.3 21:59:00 10° NNW 22:03:18 70° W 22:07:37 10° S
Cosmos 1271 Rocket 4.4 22:01:53 10° NNE 22:04:34 18° ENE 22:05:31 16° E
ERS-1 Rocket 3.1 21:59:53 10° S 22:04:54 77° WSW 22:09:57 10° NNW
Cosmos 1633 Rocket 3.7 22:02:35 18° SSE 22:05:17 36° E 22:09:18 10° NNE
YAOGAN 6 4.1 22:04:58 19° E 22:06:05 22° ENE 22:08:53 10° NNE
ERBS 2.3 22:02:57 10° SW 22:06:27 85° SE 22:09:57 10° NE
SL-16 R/B 4.4 22:04:48 10° NW 22:08:55 21° W 22:13:02 10° SSW
Sakura Rocket 3.7 22:07:14 10° SW 22:11:13 29° S 22:12:17 25° SE
Envisat 3.0 22:08:20 17° SSE 22:12:19 74° ENE 22:17:23 10° N
Cosmos 1703 4.2 22:14:44 26° ESE 22:15:38 29° E 22:19:03 10° NNE
SL-14 R/B 3.2 22:14:22 19° S 22:17:07 64° E 22:21:05 10° NNE
NOSS 3-1 (C) 4.3 22:13:56 10° SW 22:19:33 50° NW 22:25:43 10° NNE
Cosmos 1805 Rocket 3.8 22:18:31 10° SSW 22:22:58 74° W 22:27:24 10° N
PSLV R/B 3.2 22:23:17 45° SE 22:23:56 59° ENE 22:26:57 10° N
Meteor 1-27 4.2 22:19:47 10° N 22:25:25 70° E 22:28:49 24° SSE
Cosmos 220 Rocket 3.9 22:22:37 11° S 22:26:43 74° ESE 22:31:09 10° NNE
Cosmos 2227 Rocket 2.3 22:23:04 13° S 22:27:51 51° ESE 22:33:19 10° NNE
Cosmos 1937 Rocket 3.4 22:25:03 10° SSW 22:30:16 81° ESE 22:35:29 10° NNE
MetOp-A 4.1 22:30:23 27° SSE 22:33:21 73° ENE 22:38:41 10° N
Cosmos 1300 2.6 22:30:23 10° N 22:34:14 84° W 22:35:46 35° S
Cosmos 990 Rocket 3.9 22:32:42 20° S 22:36:10 63° ESE 22:41:15 10° NNE
H-2A R/B 3.2 22:36:21 15° SSW 22:39:48 41° W 22:44:05 10° NNW
SPOT 5 2.9 22:40:03 27° S 22:42:29 70° WSW 22:47:19 10° NNW
Cosmos 292 Rocket 3.7 22:39:51 10° N 22:44:35 67° ENE 22:46:00 43° SE
Meteor 2-11 Rocket 4.4 22:39:06 10° N 22:45:15 86° W 22:48:55 26° S
Cosmos 1666 Rocket 4.2 22:42:22 14° SSW 22:46:04 54° W 22:50:24 10° N
Cosmos 1707 Rocket 3.9 22:41:52 10° NNW 22:46:12 63° W 22:48:17 29° SSW
ARGOS 3.4 22:44:45 36° SE 22:46:40 54° ENE 22:51:55 10° N
H-2A R/B 3.5 22:43:18 10° SW 22:47:11 51° SSE 23:07:21 10° E
SL-16 R/B 4.0 22:45:09 10° NNE 22:48:52 18° ENE 22:50:40 15° E
CZ-4B R/B 3.5 22:45:49 10° NNE 22:51:04 85° WNW 22:54:30 22° SSW
Cosmos 2333 Rocket 2.6 22:48:21 10° N 22:53:58 52° ENE 22:55:43 38° ESE
Cosmos 2297 Rocket 2.2 22:51:53 33° S 22:54:18 60° ESE 22:59:51 10° NNE
OTV 4 1.6 22:51:38 10° W 22:54:28 40° N 22:54:46 39° N
Hubble Space Telescope 1.9 22:52:18 10° WSW 22:54:58 30° SSW 22:54:58 30° SSW
Cosmos 1455 3.3 22:52:50 10° NNE 22:55:49 32° ENE 22:55:49 32° ENE
Cosmos 1346 4.4 22:57:45 34° NNE 22:57:45 34° NNE 22:59:39 10° NNE
Cosmos 1726 2.8 22:54:36 10° NNW 22:58:17 50° W 22:59:13 39° SW
Landsat 7 4.4 22:57:59 38° E 22:58:34 40° ENE 23:03:00 10° N
Cosmos 1470 Rocket 3.4 22:59:12 61° SSE 22:59:52 78° E 23:04:12 10° N
Cosmos 1933 Rocket 3.5 22:59:59 59° SSE 23:00:46 77° E 23:05:14 10° N
Cosmos 2219 Rocket 2.1 22:55:49 10° NNW 23:01:26 81° ENE 23:03:06 47° SSE
SL-23 DEB 4.3 22:57:36 10° WNW 23:01:39 42° SW 23:01:40 42° SW
SL-08 RB Rocket 3.6 23:05:02 62° ESE 23:05:32 69° ENE 23:10:01 10° N
COSMOS 2428 3.6 23:00:24 10° NW 23:05:43 42° WSW 23:08:25 26° SSW
Meteor 2-10 4.1 22:59:57 10° N 23:05:44 83° E 23:07:30 46° SSE
Meteor 1-4 Rocket 2.9 23:03:07 10° NNW 23:06:46 56° W 23:06:57 55° WSW
NOSS 0 Rocket 3.8 23:01:31 10° NNW 23:07:41 80° ENE 23:09:35 47° SSE
Lacrosse 4 Rocket 3.4 23:05:24 10° N 23:08:38 19° ENE 23:08:55 19° ENE
Nadezhda 1 Rocket 3.9 23:04:26 10° N 23:10:33 71° E 23:12:17 48° SSE
Terra 2.5 23:14:22 40° ENE 23:14:26 40° ENE 23:18:52 10° N
H-2A R/B 2.4 23:15:25 48° E 23:16:09 51° ENE 23:21:24 10° N
NOSS 2-3 (D) 4.4 23:21:10 43° ENE 23:21:10 43° ENE 23:25:09 10° NE
Cosmos 1745 Rocket 4.3 23:16:53 25° SSW 23:20:33 64° W 23:26:41 10° N
COSMOS 2455 3.6 23:14:59 10° N 23:20:33 37° ENE 23:21:50 34° E
Cosmos 1125 Rocket 3.4 23:23:43 69° SE 23:24:09 73° ESE 23:29:28 10° NNE
Tiangong 1 3.9 23:22:32 10° NW 23:24:27 15° N 23:25:23 14° NNE
Cosmos 1980 3.6 23:20:15 10° NNW 23:25:55 87° WSW 23:26:49 64° SSE
Cosmos 1709 Rocket 3.9 23:27:42 57° SE 23:28:28 62° E 23:34:29 10° NNE
SPOT 1/Viking Rocket 4.2 23:27:31 37° SW 23:28:53 46° W 23:33:51 10° NNW
Spot 4 4.4 23:29:25 44° ENE 23:29:25 44° ENE 23:33:49 10° N
Cosmos 1626 3.3 23:36:48 40° WNW 23:36:48 40° WNW 23:40:02 10° N
OAO 2 Rocket 3.4 23:32:07 10° W 23:37:28 79° N 23:38:02 69° ENE
Cosmos 2237 Rocket 2.1 23:31:55 10° NNW 23:37:37 76° WSW 23:38:17 67° SSW
Cosmos 1869 4.0 23:36:02 10° N 23:39:13 53° NNW 23:39:13 53° NNW
CARTOSAT-1 3.9 23:42:07 62° N 23:42:07 62° N 23:45:44 10° N
Cosmos 1862 Rocket 4.2 23:41:14 10° NNW 23:45:04 51° WNW 23:45:04 51° WNW
ATLAS 2AS CENTAUR R/B 3.8 23:40:11 10° SW 23:47:19 49° NW 23:55:03 10° NNE
IGS 5A 4.2 23:50:55 50° NNW 23:50:55 50° NNW 23:54:04 10° NNW
